Weather History for North Platte, NE

Change the Weather History Date:

Thursday, September 5, 2013

  Actual Average Record
Temperature  
Mean Temperature 81 °F 67 °F  
Max Temperature 96 °F 82 °F 105 °F (1931)
Min Temperature 66 °F 52 °F 32 °F (1956)
Degree Days  
Heating Degree Days 0 2  
Month to date heating degree days 0 10  
Since 1 July heating degree days 13 30  
Cooling Degree Days 16 4  
Month to date cooling degree days 53 23  
Year to date cooling degree days 890 718  
Growing Degree Days 31 (Base 50)    
Moisture  
Dew Point 57 °F    
Average Humidity 50    
Maximum Humidity 73    
Minimum Humidity 26    
Precipitation  
Precipitation 0.00 in 0.05 in 0.65 in (1948)
Month to date precipitation 0.00 0.24  
Year to date precipitation 14.36 16.46  
Snow  
Snow 0.00 in 0.00 in 0.00 in (2002)
Month to date snowfall 0.0 0.0  
Since 1 July snowfall 0.0 0.0  
Since 1 September snowfall 0.0 0.0  
Snow Depth 0.00 in    
Sea Level Pressure  
Sea Level Pressure 30.00 in    
Wind  
Wind Speed 8 mph (SE)    
Max Wind Speed 16 mph    
Max Gust Speed 23 mph    
Visibility 10 miles    
Events      
T = Trace of Precipitation, MM = Missing Value Source: NWS Daily Summary

Daily Weather History Graph

Daily Weather History Graph

Search for Another Location

Airport:

Trip Planner

Search our weather history database for the weather conditions in past years. The results will help you decide how hot, cold, wet, or windy it might be!

Date:

Astronomy

Sep. 05, 2013 Rise Set
Actual Time 7:13 AM CDT 8:08 PM CDT
Civil Twilight 6:45 AM CDT 8:36 PM CDT
Nautical Twilight 6:12 AM CDT 9:09 PM CDT
Astronomical Twilight 5:37 AM CDT 9:44 PM CDT
Moon 7:27 AM CDT (9/5) 8:00 PM CDT (9/5)
Length of Visible Light 13h 50m
Length of Day
12h 54m
New Moon, 0% of the Moon is Illuminated
Sep 5
New Moon
Sep 12
First Quarter
Sep 19
Full
Sep 26
Last Quarter
Oct 4
New

Hourly Weather History & Observations

Time (CDT) Temp. Heat Index Dew Point Humidity Pressure Visibility Wind Dir Wind Speed Gust Speed Precip Events Conditions
12:53 AM 75.9 °F - 57.9 °F 54% 30.03 in 10.0 mi SSE 3.5 mph - N/A   Clear
1:53 AM 75.9 °F - 57.9 °F 54% 30.00 in 10.0 mi South 10.4 mph - N/A   Clear
2:53 AM 73.9 °F - 59.0 °F 59% 30.00 in 10.0 mi SE 6.9 mph - N/A   Clear
3:53 AM 73.9 °F - 57.9 °F 57% 29.98 in 10.0 mi SSE 6.9 mph - N/A   Clear
4:53 AM 73.0 °F - 57.9 °F 59% 29.98 in 10.0 mi SE 5.8 mph - N/A   Clear
5:53 AM 73.0 °F - 57.9 °F 59% 29.98 in 10.0 mi SE 6.9 mph - N/A   Clear
6:53 AM 66.9 °F - 57.9 °F 73% 30.00 in 10.0 mi East 4.6 mph - N/A   Clear
7:53 AM 68.0 °F - 59.0 °F 73% 30.03 in 10.0 mi NE 4.6 mph - N/A   Clear
8:53 AM 73.0 °F - 60.1 °F 64% 30.05 in 10.0 mi Calm Calm - N/A   Clear
9:53 AM 77.0 °F - 57.9 °F 52% 30.06 in 10.0 mi SSE 5.8 mph - N/A   Clear
10:53 AM 82.0 °F 82.1 °F 59.0 °F 45% 30.04 in 10.0 mi Variable 3.5 mph - N/A   Clear
11:53 AM 86.0 °F 85.0 °F 57.9 °F 38% 30.04 in 10.0 mi Calm Calm - N/A   Clear
12:53 PM 88.0 °F 87.1 °F 59.0 °F 37% 30.03 in 10.0 mi Variable 3.5 mph - N/A   Clear
1:53 PM 91.9 °F 90.8 °F 57.9 °F 32% 30.00 in 10.0 mi ESE 4.6 mph - N/A   Clear
2:53 PM 95.0 °F 93.4 °F 55.9 °F 27% 29.99 in 10.0 mi South 11.5 mph - N/A   Clear
3:53 PM 95.0 °F 93.4 °F 55.9 °F 27% 29.98 in 10.0 mi South 15.0 mph 19.6 mph N/A   Clear
4:53 PM 95.0 °F 93.4 °F 55.9 °F 27% 29.96 in 10.0 mi South 9.2 mph - N/A   Clear
5:53 PM 93.0 °F 91.4 °F 55.9 °F 29% 29.95 in 10.0 mi SSE 12.7 mph - N/A   Clear
6:53 PM 91.0 °F 88.9 °F 55.0 °F 29% 29.95 in 10.0 mi SSE 10.4 mph 18.4 mph N/A   Clear
7:53 PM 88.0 °F 86.1 °F 55.0 °F 32% 29.94 in 10.0 mi SE 9.2 mph - N/A   Clear
8:53 PM 82.0 °F 81.7 °F 57.0 °F 42% 29.96 in 10.0 mi SE 8.1 mph - N/A   Clear
9:53 PM 81.0 °F 81.0 °F 57.0 °F 44% 29.97 in 10.0 mi SE 10.4 mph - N/A   Clear
10:53 PM 80.1 °F 80.4 °F 57.0 °F 45% 29.97 in 10.0 mi SE 11.5 mph - N/A   Clear
11:53 PM 78.1 °F - 57.0 °F 48% 29.97 in 10.0 mi SE 9.2 mph - N/A   Clear